| time (UTC) | temp C | wind direction | speed KPH | gust KPH | rain 1hr cm | rain 24hr cm | rain mn cm | humidity % | barometer mb |
| 20260510095234 | 10 | 296 | 0.0 | 3.2 | 0.00 | 0.00 | 0.00 | 99 | 1012.5 |
| 20260510094732 | 10 | 302 | 1.6 | 3.2 | 0.00 | 0.00 | 0.00 | 99 | 1012.6 |
| 20260510094228 | 10 | 225 | 0.0 | 3.2 | 0.00 | 0.00 | 0.00 | 99 | 1012.7 |
| 20260510093724 | 10 | 354 | 1.6 | 3.2 | 0.00 | 0.00 | 0.00 | 99 | 1012.5 |
| 20260510093222 | 10 | 350 | 3.2 | 3.2 | 0.00 | 0.00 | 0.00 | 99 | 1012.4 |
| 20260510092718 | 10 | 36 | 3.2 | 3.2 | 0.00 | 0.00 | 0.00 | 99 | 1012.3 |
| 20260510092214 | 10 | 219 | 1.6 | 3.2 | 0.00 | 0.00 | 0.00 | 99 | 1012.3 |
| 20260510091709 | 10 | 312 | 0.0 | 1.6 | 0.00 | 0.00 | 0.00 | 99 | 1012.5 |
| 20260510091206 | 10 | 353 | 0.0 | 3.2 | 0.00 | 0.00 | 0.00 | 99 | 1012.5 |
| 20260510090703 | 10 | 297 | 0.0 | 1.6 | 0.00 | 0.00 | 0.00 | 99 | 1012.3 |
| 20260510090200 | 10 | 302 | 1.6 | 3.2 | 0.00 | 0.00 | 0.00 | 99 | 1012.1 |
| 20260510085655 | 10 | 296 | 0.0 | 1.6 | 0.00 | 0.00 | 0.00 | 99 | 1012.0 |
| 20260510085150 | 10 | 282 | 3.2 | 3.2 | 0.00 | 0.00 | 0.00 | 99 | 1012.0 |
| 20260510084647 | 10 | 224 | 0.0 | 1.6 | 0.00 | 0.00 | 0.00 | 99 | 1011.9 |
| 20260510084143 | 10 | 5 | 0.0 | 0.0 | 0.00 | 0.00 | 0.00 | 99 | 1012.2 |
| 20260510083640 | 10 | 224 | 0.0 | 1.6 | 0.00 | 0.00 | 0.00 | 99 | 1012.1 |
| 20260510083137 | 10 | 259 | 3.2 | 3.2 | 0.00 | 0.00 | 0.00 | 99 | 1012.1 |
| 20260510082633 | 10 | 285 | 0.0 | 1.6 | 0.00 | 0.00 | 0.00 | 99 | 1012.1 |
| 20260510082129 | 10 | 328 | 0.0 | 4.8 | 0.00 | 0.00 | 0.00 | 99 | 1012.2 |
| 20260510081624 | 10 | 269 | 0.0 | 3.2 | 0.00 | 0.00 | 0.00 | 99 | 1012.3 |
| 20260510081120 | 10 | 32 | 0.0 | 1.6 | 0.00 | 0.00 | 0.00 | 99 | 1012.4 |
| 20260510080619 | 10 | 223 | 0.0 | 3.2 | 0.00 | 0.00 | 0.00 | 99 | 1012.3 |
| 20260510080116 | 10 | 304 | 0.0 | 1.6 | 0.00 | 0.00 | 0.00 | 99 | 1012.3 |
| 20260510075613 | 10 | 264 | 1.6 | 3.2 | 0.00 | 0.00 | 0.00 | 99 | 1012.7 |
| 20260510075110 | 10 | 293 | 0.0 | 1.6 | 0.00 | 0.00 | 0.00 | 99 | 1012.7 |
| 20260510074607 | 10 | 302 | 1.6 | 4.8 | 0.00 | 0.00 | 0.00 | 99 | 1012.5 |
| 20260510074103 | 10 | 126 | 3.2 | 4.8 | 0.00 | 0.00 | 0.00 | 99 | 1012.4 |
| 20260510073559 | 10 | 59 | 0.0 | 1.6 | 0.00 | 0.00 | 0.00 | 99 | 1012.7 |
| 20260510073056 | 10 | 218 | 0.0 | 0.0 | 0.00 | 0.00 | 0.00 | 99 | 1012.8 |
| 20260510072553 | 10 | 299 | 0.0 | 0.0 | 0.00 | 0.00 | 0.00 | 99 | 1012.9 |
| 20260510072048 | 10 | 337 | 0.0 | 0.0 | 0.00 | 0.00 | 0.00 | 99 | 1012.9 |
| 20260510071545 | 10 | 278 | 1.6 | 1.6 | 0.00 | 0.00 | 0.00 | 99 | 1012.7 |
| 20260510071043 | 10 | 301 | 0.0 | 1.6 | 0.00 | 0.00 | 0.00 | 99 | 1012.6 |
| 20260510070539 | 10 | 89 | 0.0 | 3.2 | 0.00 | 0.00 | 0.00 | 99 | 1012.7 |
| 20260510070037 | 10 | 107 | 0.0 | 3.2 | 0.00 | 0.00 | 0.00 | 99 | 1012.9 |
| 20260510065533 | 10 | 229 | 0.0 | 1.6 | 0.00 | 0.00 | 0.00 | 99 | 1013.0 |
| 20260510065029 | 10 | 89 | 0.0 | 1.6 | 0.00 | 0.00 | 0.00 | 99 | 1012.9 |
| 20260510064526 | 10 | 245 | 0.0 | 1.6 | 0.00 | 0.00 | 0.00 | 99 | 1013.0 |
| 20260510064022 | 10 | 248 | 0.0 | 3.2 | 0.00 | 0.00 | 0.00 | 99 | 1013.0 |
| 20260510063519 | 10 | 246 | 1.6 | 3.2 | 0.00 | 0.00 | 0.00 | 99 | 1013.0 |
| 20260510063017 | 10 | 235 | 3.2 | 4.8 | 0.00 | 0.00 | 0.00 | 99 | 1013.0 |
| 20260510062512 | 10 | 248 | 1.6 | 3.2 | 0.00 | 0.00 | 0.00 | 99 | 1012.9 |
| 20260510062007 | 10 | 248 | 0.0 | 3.2 | 0.00 | 0.00 | 0.00 | 99 | 1013.1 |
| 20260510061505 | 10 | 323 | 4.8 | 4.8 | 0.00 | 0.00 | 0.00 | 99 | 1012.6 |
| 20260510061001 | 10 | 249 | 0.0 | 3.2 | 0.00 | 0.00 | 0.00 | 99 | 1012.6 |
| 20260510060458 | 10 | 250 | 1.6 | 3.2 | 0.00 | 0.00 | 0.00 | 99 | 1012.6 |
| 20260510055953 | 10 | 209 | 1.6 | 4.8 | 0.00 | 0.00 | 0.00 | 99 | 1012.5 |
| 20260510055449 | 10 | 247 | 3.2 | 3.2 | 0.00 | 0.00 | 0.00 | 99 | 1012.7 |
| 20260510054948 | 10 | 154 | 0.0 | 3.2 | 0.00 | 0.00 | 0.00 | 99 | 1012.6 |
| 20260510054443 | 10 | 231 | 1.6 | 3.2 | 0.00 | 0.00 | 0.00 | 99 | 1012.7 |
| 20260510053938 | 10 | 235 | 1.6 | 3.2 | 0.00 | 0.00 | 0.00 | 99 | 1012.7 |
| 20260510053434 | 10 | 237 | 3.2 | 3.2 | 0.00 | 0.00 | 0.00 | 99 | 1012.7 |
| 20260510052930 | 10 | 215 | 3.2 | 3.2 | 0.00 | 0.00 | 0.00 | 99 | 1013.0 |
| 20260510052426 | 10 | 236 | 3.2 | 3.2 | 0.00 | 0.00 | 0.00 | 99 | 1013.0 |
| 20260510051922 | 10 | 251 | 3.2 | 3.2 | 0.00 | 0.00 | 0.00 | 99 | 1012.7 |
| 20260510051419 | 10 | 299 | 1.6 | 3.2 | 0.00 | 0.00 | 0.00 | 99 | 1012.7 |
| 20260510050915 | 10 | 239 | 3.2 | 3.2 | 0.00 | 0.00 | 0.00 | 99 | 1012.7 |
| 20260510050412 | 10 | 269 | 1.6 | 6.4 | 0.00 | 0.00 | 0.00 | 99 | 1012.7 |
| 20260510045909 | 10 | 215 | 3.2 | 3.2 | 0.00 | 0.00 | 0.00 | 99 | 1012.5 |
| 20260510045406 | 10 | 232 | 1.6 | 3.2 | 0.00 | 0.00 | 0.00 | 99 | 1012.4 |
| 20260510044903 | 10 | 245 | 0.0 | 8.0 | 0.00 | 0.00 | 0.00 | 99 | 1012.5 |
| 20260510044400 | 10 | 251 | 3.2 | 4.8 | 0.00 | 0.00 | 0.00 | 99 | 1012.1 |
| 20260510043857 | 10 | 181 | 0.0 | 4.8 | 0.00 | 0.00 | 0.00 | 99 | 1012.4 |
| 20260510043352 | 10 | 224 | 0.0 | 4.8 | 0.00 | 0.00 | 0.00 | 99 | 1012.5 |
| 20260510042851 | 10 | 269 | 0.0 | 8.0 | 0.00 | 0.00 | 0.00 | 99 | 1012.5 |
| 20260510042346 | 10 | 233 | 6.4 | 8.0 | 0.00 | 0.00 | 0.00 | 99 | 1012.3 |
| 20260510041843 | 10 | 236 | 4.8 | 4.8 | 0.00 | 0.00 | 0.00 | 99 | 1012.2 |
| 20260510041340 | 9 | 248 | 3.2 | 3.2 | 0.00 | 0.00 | 0.00 | 99 | 1012.3 |
| 20260510040837 | 9 | 226 | 3.2 | 3.2 | 0.00 | 0.00 | 0.00 | 99 | 1012.1 |
| 20260510040334 | 9 | 282 | 1.6 | 3.2 | 0.00 | 0.00 | 0.00 | 99 | 1012.1 |
| 20260510035829 | 9 | 293 | 0.0 | 1.6 | 0.00 | 0.89 | 0.89 | 99 | 1012.2 |
| 20260510035326 | 9 | 265 | 1.6 | 3.2 | 0.00 | 0.89 | 0.89 | 99 | 1012.2 |
| 20260510034821 | 9 | 94 | 3.2 | 3.2 | 0.00 | 0.89 | 0.89 | 99 | 1012.3 |
| 20260510034319 | 9 | 212 | 0.0 | 1.6 | 0.00 | 0.89 | 0.89 | 99 | 1012.1 |
| 20260510033815 | 9 | 221 | 0.0 | 3.2 | 0.00 | 0.89 | 0.89 | 99 | 1012.0 |
| 20260510033313 | 8 | 281 | 1.6 | 1.6 | 0.00 | 0.89 | 0.89 | 99 | 1012.2 |
| 20260510032809 | 9 | 237 | 0.0 | 3.2 | 0.00 | 0.89 | 0.89 | 99 | 1012.1 |
| 20260510032306 | 8 | 246 | 0.0 | 3.2 | 0.00 | 0.89 | 0.89 | 99 | 1012.0 |
| 20260510031801 | 8 | 304 | 0.0 | 3.2 | 0.00 | 0.89 | 0.89 | 99 | 1012.2 |
| 20260510031258 | 8 | 224 | 0.0 | 3.2 | 0.00 | 0.89 | 0.89 | 99 | 1012.1 |
| 20260510030757 | 8 | 283 | 1.6 | 3.2 | 0.00 | 0.89 | 0.89 | 99 | 1012.2 |
| 20260510030254 | 8 | 348 | 0.0 | 0.0 | 0.00 | 0.89 | 0.89 | 99 | 1012.1 |
| 20260510025751 | 8 | 224 | 0.0 | 0.0 | 0.00 | 0.89 | 0.89 | 99 | 1012.1 |
| 20260510025249 | 8 | 105 | 3.2 | 3.2 | 0.00 | 0.89 | 0.89 | 99 | 1011.9 |
| 20260510024745 | 8 | 60 | 0.0 | 0.0 | 0.00 | 0.89 | 0.89 | 99 | 1012.1 |
| 20260510024242 | 8 | 76 | 0.0 | 1.6 | 0.00 | 0.89 | 0.89 | 99 | 1012.2 |
| 20260510023738 | 7 | 315 | 0.0 | 0.0 | 0.00 | 0.89 | 0.89 | 99 | 1012.2 |
| 20260510023235 | 8 | 130 | 0.0 | 0.0 | 0.00 | 0.89 | 0.89 | 99 | 1012.1 |
| 20260510022732 | 8 | 124 | 0.0 | 1.6 | 0.00 | 0.89 | 0.89 | 99 | 1012.1 |
| 20260510022231 | 8 | 32 | 0.0 | 0.0 | 0.00 | 0.89 | 0.89 | 99 | 1012.2 |
| 20260510021726 | 8 | 32 | 0.0 | 0.0 | 0.00 | 0.89 | 0.89 | 99 | 1012.1 |
| 20260510021224 | 8 | 89 | 0.0 | 0.0 | 0.00 | 0.89 | 0.89 | 99 | 1011.9 |
| 20260510020719 | 8 | 126 | 0.0 | 0.0 | 0.00 | 0.89 | 0.89 | 99 | 1011.9 |
| 20260510020219 | 8 | 32 | 0.0 | 1.6 | 0.00 | 0.89 | 0.89 | 99 | 1012.0 |
| 20260510015715 | 8 | 32 | 0.0 | 0.0 | 0.00 | 0.89 | 0.89 | 99 | 1011.9 |
| 20260510015212 | 8 | 44 | 1.6 | 3.2 | 0.00 | 0.89 | 0.89 | 99 | 1011.9 |
| 20260510014707 | 8 | 44 | 0.0 | 1.6 | 0.00 | 0.89 | 0.89 | 99 | 1012.0 |
| 20260510014206 | 8 | 257 | 0.0 | 0.0 | 0.00 | 0.89 | 0.89 | 99 | 1012.1 |
| 20260510013706 | 8 | 257 | 0.0 | 1.6 | 0.00 | 0.89 | 0.89 | 99 | 1012.0 |
| 20260510013202 | 8 | 293 | 0.0 | 0.0 | 0.00 | 0.89 | 0.89 | 99 | 1011.9 |
| 20260510012701 | 8 | 329 | 0.0 | 1.6 | 0.00 | 0.89 | 0.89 | 99 | 1011.6 |
| 20260510012157 | 8 | 53 | 1.6 | 1.6 | 0.00 | 0.89 | 0.89 | 99 | 1011.7 |
| 20260510011652 | 9 | 147 | 0.0 | 0.0 | 0.00 | 0.89 | 0.89 | 99 | 1012.0 |
| 20260510011148 | 9 | 282 | 1.6 | 1.6 | 0.00 | 0.89 | 0.89 | 99 | 1012.0 |
| 20260510010644 | 9 | 221 | 1.6 | 1.6 | 0.00 | 0.89 | 0.89 | 99 | 1011.9 |
| 20260510010142 | 9 | 345 | 0.0 | 1.6 | 0.00 | 0.89 | 0.89 | 99 | 1011.8 |
| 20260510005637 | 9 | 348 | 0.0 | 1.6 | 0.00 | 0.89 | 0.89 | 99 | 1011.6 |
| 20260510005135 | 9 | 52 | 0.0 | 1.6 | 0.00 | 0.89 | 0.89 | 99 | 1011.6 |
| 20260510004633 | 9 | 110 | 0.0 | 0.0 | 0.00 | 0.89 | 0.89 | 99 | 1011.6 |
| 20260510004131 | 9 | 116 | 0.0 | 0.0 | 0.00 | 0.89 | 0.89 | 99 | 1011.6 |
| 20260510003627 | 9 | 324 | 0.0 | 3.2 | 0.00 | 0.89 | 0.89 | 99 | 1011.4 |
| 20260510003123 | 10 | 324 | 0.0 | 3.2 | 0.00 | 0.89 | 0.89 | 99 | 1011.4 |
| 20260510002623 | 10 | 235 | 0.0 | 1.6 | 0.00 | 0.89 | 0.89 | 99 | 1011.2 |
| 20260510002121 | 10 | 233 | 0.0 | 3.2 | 0.00 | 0.89 | 0.89 | 99 | 1011.3 |
| 20260510001617 | 10 | 256 | 0.0 | 3.2 | 0.00 | 0.89 | 0.89 | 99 | 1011.2 |
| 20260510001116 | 10 | 198 | 0.0 | 1.6 | 0.00 | 0.89 | 0.89 | 99 | 1011.3 |
| 20260510000616 | 10 | 305 | 3.2 | 3.2 | 0.00 | 0.89 | 0.89 | 99 | 1011.2 |
| 20260510000114 | 10 | 233 | 0.0 | 0.0 | 0.00 | 0.89 | 0.89 | 99 | 1011.3 |
| 20260509235610 | 11 | 224 | 0.0 | 0.0 | 0.00 | 0.89 | 0.89 | 99 | 1011.1 |
| 20260509235107 | 11 | 119 | 1.6 | 1.6 | 0.00 | 0.89 | 0.89 | 99 | 1011.1 |
| 20260509234603 | 11 | 212 | 0.0 | 3.2 | 0.00 | 0.89 | 0.89 | 99 | 1011.1 |
| 20260509234101 | 11 | 210 | 0.0 | 3.2 | 0.00 | 0.89 | 0.89 | 99 | 1011.0 |
| 20260509233558 | 11 | 234 | 3.2 | 3.2 | 0.00 | 0.89 | 0.89 | 99 | 1010.5 |
| 20260509233055 | 11 | 245 | 3.2 | 3.2 | 0.00 | 0.89 | 0.89 | 99 | 1010.5 |
| 20260509232551 | 11 | 208 | 3.2 | 4.8 | 0.00 | 0.89 | 0.89 | 99 | 1010.6 |
| 20260509232049 | 11 | 226 | 0.0 | 3.2 | 0.00 | 0.89 | 0.89 | 99 | 1010.5 |
| 20260509231545 | 11 | 246 | 0.0 | 3.2 | 0.00 | 0.89 | 0.89 | 98 | 1010.5 |
| 20260509231043 | 11 | 315 | 0.0 | 3.2 | 0.00 | 0.89 | 0.89 | 98 | 1010.6 |
| 20260509230539 | 11 | 232 | 0.0 | 1.6 | 0.00 | 0.89 | 0.89 | 98 | 1010.7 |
| 20260509230037 | 11 | 146 | 1.6 | 6.4 | 0.00 | 0.89 | 0.89 | 98 | 1010.6 |
| 20260509225532 | 11 | 258 | 4.8 | 6.4 | 0.00 | 0.89 | 0.89 | 98 | 1010.4 |
| 20260509225027 | 12 | 55 | 0.0 | 3.2 | 0.00 | 0.89 | 0.89 | 98 | 1010.6 |
| 20260509224523 | 12 | 52 | 1.6 | 3.2 | 0.00 | 0.89 | 0.89 | 98 | 1010.6 |
| 20260509224020 | 12 | 49 | 0.0 | 4.8 | 0.00 | 0.89 | 0.89 | 98 | 1010.8 |
| 20260509223517 | 12 | 223 | 0.0 | 3.2 | 0.00 | 0.89 | 0.89 | 98 | 1010.6 |
| 20260509223015 | 11 | 235 | 0.0 | 3.2 | 0.00 | 0.89 | 0.89 | 98 | 1010.7 |
| 20260509222511 | 11 | 48 | 0.0 | 3.2 | 0.00 | 0.89 | 0.89 | 98 | 1010.8 |
| 20260509222006 | 11 | 155 | 0.0 | 0.0 | 0.00 | 0.89 | 0.89 | 98 | 1010.8 |
| 20260509221502 | 11 | 235 | 0.0 | 1.6 | 0.00 | 0.89 | 0.89 | 98 | 1011.1 |
| 20260509220958 | 11 | 280 | 0.0 | 6.4 | 0.00 | 0.89 | 0.89 | 98 | 1011.0 |
| 20260509220455 | 11 | 203 | 1.6 | 3.2 | 0.00 | 0.89 | 0.89 | 98 | 1011.0 |
| 20260509215950 | 11 | 240 | 1.6 | 4.8 | 0.00 | 0.89 | 0.89 | 97 | 1010.8 |
| 20260509215446 | 11 | 225 | 3.2 | 4.8 | 0.00 | 0.89 | 0.89 | 98 | 1010.8 |
| 20260509214944 | 11 | 129 | 0.0 | 3.2 | 0.00 | 0.89 | 0.89 | 98 | 1011.1 |
| 20260509214441 | 11 | 211 | 0.0 | 4.8 | 0.00 | 0.89 | 0.89 | 98 | 1011.0 |
| 20260509213938 | 11 | 198 | 1.6 | 4.8 | 0.00 | 0.89 | 0.89 | 99 | 1011.0 |
| 20260509213433 | 11 | 260 | 3.2 | 6.4 | 0.00 | 0.89 | 0.89 | 99 | 1011.1 |
| 20260509212931 | 11 | 215 | 1.6 | 3.2 | 0.00 | 0.89 | 0.89 | 99 | 1011.0 |
| 20260509212429 | 11 | 234 | 0.0 | 6.4 | 0.00 | 0.89 | 0.89 | 99 | 1011.0 |
| 20260509211924 | 11 | 248 | 3.2 | 3.2 | 0.05 | 0.89 | 0.89 | 99 | 1011.1 |
| 20260509211420 | 11 | 249 | 0.0 | 1.6 | 0.13 | 0.89 | 0.89 | 99 | 1011.0 |
| 20260509210917 | 10 | 141 | 0.0 | 3.2 | 0.13 | 0.86 | 0.86 | 99 | 1011.2 |
| 20260509210414 | 10 | 77 | 3.2 | 3.2 | 0.18 | 0.86 | 0.86 | 99 | 1011.3 |
| 20260509205910 | 10 | 332 | 3.2 | 3.2 | 0.18 | 0.86 | 0.86 | 99 | 1011.2 |
| 20260509205409 | 11 | 269 | 0.0 | 3.2 | 0.13 | 0.84 | 0.84 | 99 | 1011.4 |
| 20260509204906 | 11 | 248 | 1.6 | 3.2 | 0.13 | 0.81 | 0.81 | 99 | 1011.4 |
| 20260509204402 | 11 | 233 | 0.0 | 4.8 | 0.05 | 0.81 | 0.81 | 99 | 1011.5 |
| 20260509203859 | 11 | 244 | 3.2 | 3.2 | 0.05 | 0.81 | 0.81 | 99 | 1011.3 |
| 20260509203355 | 11 | 233 | 0.0 | 6.4 | 0.00 | 0.79 | 0.79 | 99 | 1011.3 |
| 20260509202853 | 11 | 228 | 0.0 | 3.2 | 0.00 | 0.79 | 0.79 | 99 | 1011.3 |
| 20260509202348 | 11 | 222 | 0.0 | 3.2 | 0.00 | 0.79 | 0.79 | 99 | 1011.5 |
| 20260509201843 | 11 | 151 | 1.6 | 1.6 | 0.00 | 0.79 | 0.79 | 99 | 1011.4 |
| 20260509201339 | 10 | 0 | 1.6 | 3.2 | 0.00 | 0.79 | 0.79 | 99 | 1011.5 |
| 20260509200836 | 11 | 287 | 3.2 | 4.8 | 0.00 | 0.79 | 0.79 | 99 | 1011.7 |
| 20260509200331 | 11 | 195 | 0.0 | 4.8 | 0.05 | 0.79 | 0.79 | 99 | 1011.8 |
| 20260509195828 | 10 | 213 | 1.6 | 3.2 | 0.13 | 0.79 | 0.79 | 99 | 1011.8 |
| 20260509195328 | 10 | 243 | 3.2 | 3.2 | 0.13 | 0.79 | 0.79 | 99 | 1011.9 |
| 20260509194827 | 10 | 233 | 0.0 | 4.8 | 0.13 | 0.76 | 0.76 | 99 | 1012.0 |
| 20260509194324 | 10 | 244 | 1.6 | 3.2 | 0.13 | 0.76 | 0.76 | 99 | 1012.0 |
| 20260509193821 | 10 | 252 | 3.2 | 3.2 | 0.05 | 0.74 | 0.74 | 99 | 1012.2 |
| 20260509193321 | 10 | 224 | 0.0 | 4.8 | 0.05 | 0.74 | 0.74 | 99 | 1012.3 |
| 20260509192817 | 10 | 244 | 3.2 | 3.2 | 0.05 | 0.74 | 0.74 | 99 | 1012.3 |
| 20260509192313 | 10 | 248 | 3.2 | 3.2 | 0.05 | 0.74 | 0.74 | 99 | 1012.4 |
| 20260509191808 | 10 | 232 | 3.2 | 4.8 | 0.13 | 0.74 | 0.74 | 99 | 1012.5 |
| 20260509191305 | 10 | 280 | 4.8 | 9.7 | 0.13 | 0.71 | 0.71 | 99 | 1012.4 |
| 20260509190800 | 10 | 251 | 4.8 | 11.3 | 0.23 | 0.71 | 0.71 | 99 | 1012.5 |
| 20260509190258 | 10 | 250 | 8.0 | 16.1 | 0.30 | 0.71 | 0.71 | 99 | 1012.5 |
| 20260509185755 | 10 | 292 | 4.8 | 6.4 | 0.23 | 0.66 | 0.66 | 99 | 1012.6 |
| 20260509185251 | 10 | 258 | 3.2 | 6.4 | 0.18 | 0.66 | 0.66 | 99 | 1012.7 |
| 20260509184749 | 10 | 240 | 4.8 | 6.4 | 0.18 | 0.64 | 0.64 | 99 | 1012.6 |
| 20260509184246 | 10 | 263 | 4.8 | 8.0 | 0.18 | 0.61 | 0.61 | 99 | 1012.6 |
| 20260509183742 | 10 | 231 | 4.8 | 9.7 | 0.13 | 0.61 | 0.61 | 99 | 1012.6 |
| 20260509183238 | 10 | 208 | 1.6 | 6.4 | 0.23 | 0.58 | 0.58 | 99 | 1012.9 |
| 20260509182733 | 10 | 237 | 3.2 | 6.4 | 0.30 | 0.56 | 0.56 | 99 | 1012.7 |
| 20260509182231 | 10 | 222 | 3.2 | 6.4 | 0.36 | 0.56 | 0.56 | 99 | 1012.6 |
| 20260509181728 | 10 | 193 | 0.0 | 4.8 | 0.30 | 0.51 | 0.51 | 99 | 1012.8 |
| 20260509181226 | 10 | 198 | 4.8 | 8.0 | 0.23 | 0.48 | 0.48 | 99 | 1012.8 |
| 20260509180723 | 10 | 238 | 3.2 | 4.8 | 0.18 | 0.46 | 0.46 | 99 | 1012.9 |
| 20260509180219 | 10 | 219 | 3.2 | 12.9 | 0.13 | 0.46 | 0.46 | 99 | 1012.8 |
| 20260509175716 | 10 | 238 | 1.6 | 9.7 | 0.05 | 0.43 | 0.43 | 99 | 1012.6 |
| 20260509175212 | 10 | 233 | 4.8 | 4.8 | 0.00 | 0.43 | 0.43 | 99 | 1012.7 |
| 20260509174707 | 10 | 135 | 0.0 | 4.8 | 0.05 | 0.43 | 0.43 | 99 | 1012.8 |
| 20260509174203 | 10 | 230 | 3.2 | 3.2 | 0.05 | 0.43 | 0.43 | 99 | 1012.7 |
| 20260509173659 | 10 | 269 | 0.0 | 6.4 | 0.05 | 0.43 | 0.43 | 99 | 1012.5 |
| 20260509173155 | 10 | 250 | 4.8 | 8.0 | 0.05 | 0.43 | 0.43 | 99 | 1012.7 |
| 20260509172651 | 10 | 221 | 1.6 | 9.7 | 0.05 | 0.41 | 0.41 | 99 | 1012.6 |
| 20260509172148 | 10 | 196 | 1.6 | 6.4 | 0.05 | 0.41 | 0.41 | 99 | 1012.5 |
| 20260509171643 | 10 | 226 | 3.2 | 6.4 | 0.00 | 0.41 | 0.41 | 99 | 1012.6 |
| 20260509171140 | 10 | 235 | 1.6 | 6.4 | 0.00 | 0.41 | 0.41 | 99 | 1012.6 |
| 20260509170637 | 10 | 227 | 1.6 | 8.0 | 0.05 | 0.41 | 0.41 | 99 | 1012.6 |
| 20260509170133 | 10 | 290 | 3.2 | 3.2 | 0.05 | 0.41 | 0.41 | 99 | 1012.6 |
| 20260509165631 | 10 | 229 | 3.2 | 4.8 | 0.00 | 0.38 | 0.38 | 99 | 1012.6 |
| 20260509165127 | 10 | 244 | 3.2 | 3.2 | 0.00 | 0.38 | 0.38 | 99 | 1012.7 |
| 20260509164623 | 10 | 235 | 0.0 | 4.8 | 0.05 | 0.38 | 0.38 | 99 | 1012.8 |
| 20260509164119 | 10 | 238 | 3.2 | 3.2 | 0.00 | 0.38 | 0.38 | 99 | 1012.7 |
| 20260509163617 | 10 | 280 | 0.0 | 3.2 | 0.00 | 0.38 | 0.38 | 99 | 1012.7 |
| 20260509163112 | 10 | 244 | 4.8 | 4.8 | 0.00 | 0.38 | 0.38 | 99 | 1012.6 |
| 20260509162610 | 10 | 289 | 3.2 | 6.4 | 0.00 | 0.38 | 0.38 | 99 | 1012.5 |
| 20260509162106 | 10 | 136 | 1.6 | 6.4 | 0.00 | 0.38 | 0.38 | 99 | 1012.5 |
| 20260509161602 | 10 | 257 | 0.0 | 3.2 | 0.00 | 0.38 | 0.38 | 99 | 1012.5 |
| 20260509161102 | 10 | 215 | 0.0 | 3.2 | 0.05 | 0.38 | 0.38 | 99 | 1012.6 |
| 20260509160558 | 10 | 89 | 0.0 | 3.2 | 0.05 | 0.38 | 0.38 | 99 | 1012.7 |
| 20260509160054 | 10 | 48 | 0.0 | 3.2 | 0.00 | 0.38 | 0.38 | 99 | 1013.0 |
| 20260509155551 | 10 | 233 | 1.6 | 4.8 | 0.00 | 0.38 | 0.38 | 99 | 1013.3 |
| 20260509155047 | 10 | 91 | 1.6 | 3.2 | 0.05 | 0.38 | 0.38 | 99 | 1013.4 |
| 20260509154543 | 10 | 352 | 0.0 | 3.2 | 0.05 | 0.38 | 0.38 | 99 | 1013.3 |
| 20260509154041 | 10 | 271 | 1.6 | 3.2 | 0.05 | 0.36 | 0.36 | 99 | 1013.4 |
| 20260509153537 | 10 | 243 | 3.2 | 4.8 | 0.05 | 0.36 | 0.36 | 99 | 1013.5 |
| 20260509153034 | 10 | 304 | 0.0 | 3.2 | 0.05 | 0.36 | 0.36 | 99 | 1013.5 |
| 20260509152530 | 9 | 230 | 3.2 | 3.2 | 0.05 | 0.33 | 0.33 | 98 | 1013.6 |
| 20260509152027 | 9 | 267 | 3.2 | 4.8 | 0.13 | 0.33 | 0.33 | 98 | 1013.5 |
| 20260509151523 | 9 | 249 | 3.2 | 3.2 | 0.13 | 0.33 | 0.33 | 98 | 1013.3 |
| 20260509151021 | 9 | 329 | 0.0 | 6.4 | 0.05 | 0.33 | 0.33 | 98 | 1013.3 |
| 20260509150518 | 9 | 328 | 3.2 | 3.2 | 0.05 | 0.30 | 0.30 | 98 | 1013.2 |
| 20260509150017 | 9 | 185 | 0.0 | 3.2 | 0.13 | 0.30 | 0.30 | 97 | 1013.3 |
| 20260509145512 | 9 | 232 | 3.2 | 4.8 | 0.05 | 0.30 | 0.30 | 97 | 1013.4 |
| 20260509145007 | 9 | 304 | 0.0 | 3.2 | 0.00 | 0.28 | 0.28 | 97 | 1013.1 |
| 20260509144505 | 9 | 237 | 4.8 | 6.4 | 0.00 | 0.28 | 0.28 | 97 | 1013.4 |
| 20260509144002 | 9 | 294 | 3.2 | 4.8 | 0.00 | 0.28 | 0.28 | 97 | 1013.4 |
| 20260509143459 | 9 | 116 | 0.0 | 3.2 | 0.05 | 0.28 | 0.28 | 97 | 1013.3 |
| 20260509142955 | 9 | 254 | 3.2 | 3.2 | 0.05 | 0.28 | 0.28 | 97 | 1013.2 |
| 20260509142452 | 9 | 263 | 1.6 | 3.2 | 0.00 | 0.28 | 0.28 | 97 | 1013.0 |
| 20260509141948 | 9 | 32 | 0.0 | 0.0 | 0.00 | 0.28 | 0.28 | 98 | 1013.1 |
| 20260509141444 | 9 | 351 | 1.6 | 1.6 | 0.05 | 0.28 | 0.28 | 98 | 1013.2 |
| 20260509140941 | 9 | 224 | 0.0 | 1.6 | 0.05 | 0.28 | 0.28 | 98 | 1013.1 |
| 20260509140437 | 9 | 228 | 0.0 | 3.2 | 0.05 | 0.28 | 0.28 | 98 | 1013.2 |
| 20260509135936 | 8 | 103 | 0.0 | 3.2 | 0.13 | 0.28 | 0.28 | 98 | 1013.2 |
| 20260509135433 | 8 | 269 | 0.0 | 0.0 | 0.05 | 0.25 | 0.25 | 98 | 1013.1 |
| 20260509134930 | 8 | 15 | 1.6 | 3.2 | 0.00 | 0.25 | 0.25 | 98 | 1013.1 |
| 20260509134427 | 8 | 1 | 0.0 | 1.6 | 0.05 | 0.25 | 0.25 | 98 | 1013.3 |
| 20260509133925 | 8 | 258 | 1.6 | 3.2 | 0.05 | 0.25 | 0.25 | 98 | 1013.5 |
| 20260509133421 | 8 | 110 | 3.2 | 3.2 | 0.00 | 0.23 | 0.23 | 98 | 1013.6 |
| 20260509132920 | 8 | 112 | 1.6 | 3.2 | 0.00 | 0.23 | 0.23 | 98 | 1013.5 |
| 20260509132417 | 8 | 10 | 0.0 | 3.2 | 0.05 | 0.23 | 0.23 | 99 | 1013.6 |
| 20260509131914 | 8 | 260 | 4.8 | 4.8 | 0.05 | 0.23 | 0.23 | 98 | 1013.5 |
| 20260509131411 | 8 | 296 | 1.6 | 3.2 | 0.00 | 0.23 | 0.23 | 99 | 1013.4 |
| 20260509130908 | 8 | 168 | 1.6 | 1.6 | 0.00 | 0.23 | 0.23 | 99 | 1013.6 |
| 20260509130403 | 8 | 318 | 1.6 | 1.6 | 0.00 | 0.23 | 0.23 | 99 | 1013.7 |
| 20260509125901 | 8 | 110 | 0.0 | 1.6 | 0.05 | 0.23 | 0.23 | 99 | 1013.5 |
| 20260509125357 | 8 | 344 | 0.0 | 1.6 | 0.05 | 0.23 | 0.23 | 99 | 1013.4 |
| 20260509124853 | 8 | 40 | 1.6 | 3.2 | 0.00 | 0.23 | 0.23 | 99 | 1013.5 |
| 20260509124350 | 8 | 240 | 3.2 | 4.8 | 0.05 | 0.23 | 0.23 | 99 | 1013.7 |
| 20260509123848 | 7 | 219 | 1.6 | 4.8 | 0.00 | 0.20 | 0.20 | 99 | 1013.7 |
| 20260509123345 | 7 | 224 | 0.0 | 3.2 | 0.00 | 0.20 | 0.20 | 99 | 1013.5 |
| 20260509122841 | 7 | 251 | 4.8 | 6.4 | 0.00 | 0.20 | 0.20 | 99 | 1013.3 |
| 20260509122338 | 7 | 288 | 1.6 | 1.6 | 0.00 | 0.20 | 0.20 | 99 | 1013.2 |
| 20260509121835 | 7 | 120 | 1.6 | 3.2 | 0.00 | 0.20 | 0.20 | 99 | 1013.3 |
| 20260509121332 | 7 | 309 | 1.6 | 3.2 | 0.00 | 0.20 | 0.20 | 99 | 1013.2 |
| 20260509120830 | 7 | 260 | 1.6 | 4.8 | 0.00 | 0.20 | 0.20 | 99 | 1013.1 |
| 20260509120327 | 7 | 66 | 3.2 | 4.8 | 0.05 | 0.20 | 0.20 | 99 | 1013.2 |
| 20260509115825 | 7 | 282 | 3.2 | 3.2 | 0.05 | 0.20 | 0.20 | 99 | 1013.2 |
| 20260509115322 | 7 | 329 | 0.0 | 3.2 | 0.00 | 0.20 | 0.20 | 99 | 1013.3 |
| 20260509114820 | 7 | 250 | 3.2 | 4.8 | 0.00 | 0.20 | 0.20 | 99 | 1013.4 |
| 20260509114318 | 7 | 280 | 1.6 | 3.2 | 0.00 | 0.20 | 0.20 | 99 | 1013.4 |
| 20260509113818 | 7 | 97 | 3.2 | 3.2 | 0.00 | 0.20 | 0.20 | 99 | 1013.3 |
| 20260509113314 | 7 | 250 | 4.8 | 4.8 | 0.00 | 0.20 | 0.20 | 99 | 1013.4 |
| 20260509112811 | 7 | 141 | 3.2 | 4.8 | 0.05 | 0.20 | 0.20 | 99 | 1013.3 |
| 20260509112308 | 7 | 230 | 3.2 | 6.4 | 0.05 | 0.20 | 0.20 | 99 | 1013.3 |
| 20260509111805 | 7 | 297 | 0.0 | 3.2 | 0.00 | 0.18 | 0.18 | 99 | 1013.6 |
| 20260509111301 | 7 | 320 | 1.6 | 3.2 | 0.05 | 0.18 | 0.18 | 99 | 1013.5 |
| 20260509110759 | 7 | 54 | 0.0 | 3.2 | 0.05 | 0.18 | 0.18 | 99 | 1013.6 |
| 20260509110255 | 7 | 287 | 0.0 | 4.8 | 0.00 | 0.18 | 0.18 | 99 | 1013.6 |
| 20260509105754 | 7 | 27 | 1.6 | 3.2 | 0.00 | 0.18 | 0.18 | 99 | 1013.4 |
| 20260509105251 | 7 | 269 | 0.0 | 3.2 | 0.00 | 0.18 | 0.18 | 99 | 1013.5 |
| 20260509104747 | 7 | 287 | 0.0 | 3.2 | 0.00 | 0.18 | 0.18 | 99 | 1013.4 |
| 20260509104244 | 7 | 250 | 0.0 | 4.8 | 0.05 | 0.18 | 0.18 | 99 | 1013.4 |
| 20260509103743 | 7 | 126 | 0.0 | 3.2 | 0.05 | 0.18 | 0.18 | 99 | 1013.1 |
| 20260509103240 | 7 | 292 | 0.0 | 3.2 | 0.00 | 0.18 | 0.18 | 99 | 1013.4 |
| 20260509102738 | 6 | 313 | 1.6 | 3.2 | 0.00 | 0.18 | 0.18 | 99 | 1013.2 |
| 20260509102234 | 6 | 327 | 1.6 | 3.2 | 0.00 | 0.18 | 0.18 | 99 | 1013.3 |
| 20260509101731 | 6 | 248 | 0.0 | 3.2 | 0.00 | 0.18 | 0.18 | 99 | 1013.3 |
| 20260509101227 | 6 | 269 | 0.0 | 3.2 | 0.00 | 0.18 | 0.18 | 99 | 1013.2 |
| 20260509100725 | 6 | 39 | 0.0 | 1.6 | 0.00 | 0.18 | 0.18 | 99 | 1013.0 |
| 20260509100222 | 6 | 147 | 0.0 | 3.2 | 0.00 | 0.18 | 0.18 | 99 | 1013.2 |
| 20260509095719 | 6 | 299 | 0.0 | 3.2 | 0.00 | 0.18 | 0.18 | 99 | 1013.3 |